Precipitable_Water
0.59 0.57 0.57 0.57 0.56 0.54 0.54 0.55 0.54 0.54 0.54 0.54 0.53 0.53 0.52 0.51 0.50 0.49 0.48 0.47 0.45 0.46 0.48 0.48 0.46 0.46 0.43 0.41 0.41 0.41 0.40 0.30 0.26 0.23 0.22 0.31 0.41 0.48 0.45 0.45 0.40 0.40 0.37 0.26 0.23 0.21 0.18 0.19 0.18 0.21 0.19 0.18 0.19 0.21 0.26 0.25 0.25 0.23 0.16 0.15 0.12 0.14 0.12 0.15 0.13 0.15 0.18 0.15 0.18 0.19 0.19 0.17 0.15 0.18 0.20 0.23 0.22 0.22 0.22 0.22 0.24 0.28 0.28 0.30 0.33 0.36 0.38 0.55
0.58 0.57 0.57 0.56 0.55 0.55 0.54 0.54 0.54 0.53 0.53 0.53 0.53 0.51 0.51 0.50 0.49 0.48 0.48 0.46 0.46 0.46 0.47 0.48 0.47 0.45 0.44 0.41 0.41 0.42 0.37 0.29 0.23 0.22 0.23 0.44 0.47 0.46 0.46 0.42 0.41 0.39 0.35 0.23 0.20 0.19 0.18 0.17 0.18 0.19 0.17 0.15 0.22 0.18 0.23 0.20 0.25 0.18 0.15 0.13 0.12 0.13 0.15 0.17 0.17 0.18 0.16 0.16 0.18 0.19 0.20 0.19 0.17 0.19 0.21 0.18 0.19 0.20 0.20 0.21 0.23 0.23 0.26 0.30 0.32 0.36 0.35 0.51
0.57 0.56 0.55 0.56 0.56 0.55 0.54 0.55 0.54 0.53 0.53 0.52 0.52 0.51 0.49 0.48 0.48 0.47 0.47 0.46 0.46 0.46 0.47 0.47 0.47 0.46 0.42 0.42 0.44 0.43 0.34 0.27 0.21 0.19 0.29 0.44 0.46 0.46 0.42 0.43 0.41 0.37 0.30 0.24 0.23 0.20 0.19 0.18 0.18 0.18 0.16 0.14 0.17 0.15 0.19 0.18 0.21 0.18 0.15 0.11 0.12 0.16 0.16 0.17 0.17 0.17 0.19 0.19 0.17 0.18 0.19 0.19 0.20 0.20 0.24 0.18 0.19 0.20 0.18 0.19 0.21 0.22 0.22 0.25 0.31 0.35 0.38 0.48
0.57 0.56 0.55 0.55 0.55 0.55 0.55 0.54 0.54 0.54 0.52 0.52 0.51 0.50 0.48 0.48 0.46 0.47 0.46 0.45 0.45 0.46 0.47 0.48 0.46 0.45 0.44 0.42 0.44 0.45 0.30 0.21 0.17 0.23 0.34 0.44 0.46 0.43 0.42 0.42 0.42 0.37 0.33 0.28 0.26 0.23 0.21 0.20 0.19 0.18 0.15 0.14 0.15 0.16 0.14 0.17 0.15 0.17 0.13 0.11 0.13 0.15 0.13 0.16 0.18 0.18 0.19 0.20 0.18 0.18 0.20 0.19 0.21 0.21 0.21 0.19 0.17 0.17 0.19 0.21 0.21 0.22 0.23 0.26 0.30 0.34 0.39 0.45
0.57 0.55 0.54 0.55 0.55 0.54 0.54 0.54 0.53 0.53 0.53 0.51 0.51 0.50 0.49 0.47 0.47 0.46 0.46 0.45 0.46 0.46 0.47 0.48 0.45 0.44 0.43 0.45 0.43 0.40 0.26 0.14 0.19 0.29 0.40 0.43 0.44 0.42 0.43 0.41 0.39 0.36 0.34 0.29 0.26 0.24 0.21 0.19 0.18 0.17 0.16 0.12 0.15 0.14 0.13 0.15 0.17 0.15 0.12 0.13 0.13 0.15 0.13 0.16 0.18 0.19 0.19 0.21 0.19 0.19 0.18 0.18 0.23 0.22 0.21 0.19 0.16 0.16 0.19 0.22 0.24 0.25 0.26 0.27 0.29 0.34 0.40 0.43
0.56 0.56 0.54 0.56 0.54 0.54 0.54 0.53 0.53 0.52 0.52 0.51 0.50 0.49 0.49 0.47 0.46 0.46 0.46 0.45 0.46 0.47 0.47 0.48 0.45 0.43 0.44 0.44 0.41 0.32 0.22 0.10 0.27 0.31 0.43 0.42 0.43 0.43 0.42 0.41 0.38 0.35 0.33 0.28 0.25 0.23 0.20 0.18 0.17 0.14 0.14 0.13 0.12 0.11 0.13 0.15 0.18 0.10 0.14 0.14 0.14 0.16 0.14 0.18 0.18 0.20 0.21 0.20 0.19 0.19 0.21 0.22 0.21 0.20 0.22 0.21 0.18 0.21 0.24 0.25 0.27 0.27 0.28 0.30 0.33 0.36 0.37 0.40
0.56 0.56 0.56 0.55 0.54 0.53 0.53 0.54 0.53 0.51 0.52 0.51 0.49 0.48 0.47 0.46 0.44 0.46 0.46 0.46 0.46 0.48 0.48 0.47 0.45 0.46 0.42 0.42 0.34 0.26 0.19 0.21 0.32 0.41 0.43 0.42 0.41 0.40 0.42 0.40 0.38 0.35 0.33 0.27 0.24 0.21 0.19 0.17 0.16 0.14 0.14 0.13 0.14 0.13 0.14 0.14 0.18 0.15 0.12 0.15 0.15 0.17 0.16 0.19 0.19 0.21 0.21 0.20 0.19 0.22 0.24 0.20 0.20 0.17 0.22 0.20 0.21 0.24 0.26 0.28 0.29 0.30 0.31 0.31 0.32 0.35 0.35 0.38
0.56 0.56 0.55 0.55 0.53 0.52 0.53 0.54 0.54 0.53 0.50 0.50 0.49 0.48 0.47 0.46 0.46 0.45 0.46 0.46 0.48 0.48 0.49 0.48 0.46 0.43 0.43 0.32 0.23 0.20 0.20 0.21 0.38 0.46 0.43 0.42 0.40 0.39 0.41 0.37 0.34 0.33 0.30 0.27 0.24 0.20 0.19 0.16 0.15 0.17 0.14 0.12 0.14 0.14 0.16 0.15 0.16 0.14 0.13 0.16 0.17 0.19 0.19 0.21 0.21 0.21 0.21 0.21 0.23 0.23 0.20 0.20 0.21 0.20 0.21 0.19 0.22 0.25 0.27 0.29 0.29 0.30 0.31 0.31 0.32 0.35 0.37 0.39
0.57 0.56 0.55 0.54 0.52 0.54 0.51 0.53 0.54 0.53 0.51 0.49 0.49 0.47 0.47 0.46 0.46 0.46 0.46 0.47 0.49 0.50 0.49 0.48 0.45 0.44 0.43 0.28 0.20 0.17 0.18 0.38 0.46 0.46 0.44 0.41 0.39 0.39 0.39 0.32 0.34 0.29 0.28 0.30 0.28 0.24 0.20 0.17 0.17 0.17 0.13 0.14 0.18 0.15 0.17 0.15 0.12 0.17 0.16 0.18 0.19 0.19 0.21 0.22 0.21 0.21 0.22 0.22 0.23 0.20 0.19 0.21 0.22 0.24 0.20 0.20 0.23 0.26 0.28 0.28 0.29 0.30 0.30 0.30 0.31 0.34 0.37 0.38
0.59 0.57 0.55 0.55 0.55 0.54 0.53 0.52 0.53 0.51 0.51 0.50 0.48 0.47 0.48 0.46 0.46 0.47 0.46 0.48 0.48 0.50 0.49 0.48 0.44 0.43 0.31 0.23 0.19 0.14 0.27 0.49 0.48 0.44 0.44 0.43 0.39 0.37 0.36 0.35 0.33 0.30 0.27 0.28 0.28 0.25 0.21 0.19 0.20 0.21 0.20 0.18 0.20 0.16 0.19 0.17 0.15 0.20 0.19 0.19 0.19 0.20 0.21 0.23 0.21 0.22 0.23 0.23 0.24 0.20 0.20 0.20 0.24 0.22 0.16 0.23 0.26 0.27 0.27 0.27 0.29 0.29 0.29 0.30 0.31 0.33 0.36 0.38
0.62 0.59 0.57 0.56 0.55 0.54 0.55 0.54 0.52 0.52 0.50 0.48 0.48 0.48 0.47 0.47 0.46 0.47 0.48 0.47 0.49 0.50 0.50 0.47 0.46 0.38 0.27 0.22 0.16 0.14 0.47 0.47 0.46 0.41 0.42 0.42 0.38 0.34 0.33 0.35 0.34 0.30 0.28 0.29 0.28 0.28 0.25 0.24 0.24 0.23 0.21 0.17 0.20 0.18 0.19 0.18 0.22 0.21 0.21 0.21 0.20 0.21 0.22 0.23 0.22 0.22 0.24 0.22 0.24 0.23 0.21 0.23 0.23 0.22 0.18 0.23 0.28 0.30 0.27 0.28 0.29 0.29 0.30 0.31 0.32 0.33 0.35 0.36
0.67 0.63 0.61 0.59 0.56 0.55 0.55 0.53 0.52 0.51 0.50 0.49 0.48 0.48 0.47 0.47 0.47 0.46 0.48 0.48 0.49 0.50 0.49 0.48 0.46 0.37 0.27 0.22 0.17 0.20 0.45 0.49 0.46 0.42 0.41 0.40 0.37 0.37 0.38 0.38 0.37 0.34 0.30 0.27 0.30 0.31 0.29 0.26 0.26 0.21 0.16 0.23 0.17 0.20 0.19 0.24 0.22 0.22 0.22 0.16 0.18 0.20 0.19 0.22 0.21 0.22 0.24 0.21 0.25 0.25 0.21 0.18 0.19 0.16 0.21 0.25 0.28 0.28 0.28 0.27 0.28 0.29 0.30 0.31 0.32 0.34 0.35 0.36
0.70 0.67 0.64 0.62 0.60 0.58 0.57 0.56 0.54 0.53 0.51 0.50 0.48 0.47 0.47 0.47 0.48 0.49 0.49 0.49 0.50 0.50 0.49 0.49 0.46 0.38 0.23 0.15 0.21 0.40 0.55 0.50 0.45 0.41 0.39 0.41 0.39 0.40 0.40 0.40 0.39 0.36 0.34 0.31 0.30 0.34 0.33 0.30 0.27 0.22 0.23 0.22 0.20 0.17 0.23 0.26 0.23 0.23 0.21 0.19 0.17 0.17 0.16 0.21 0.24 0.24 0.23 0.23 0.26 0.26 0.13 0.15 0.18 0.20 0.24 0.27 0.28 0.29 0.27 0.27 0.28 0.28 0.29 0.30 0.32 0.32 0.34 0.36
0.73 0.70 0.69 0.67 0.65 0.62 0.60 0.57 0.56 0.55 0.53 0.51 0.49 0.48 0.47 0.47 0.49 0.50 0.50 0.49 0.51 0.50 0.51 0.47 0.44 0.31 0.21 0.17 0.35 0.43 0.52 0.52 0.48 0.39 0.38 0.40 0.35 0.35 0.40 0.42 0.41 0.38 0.38 0.34 0.35 0.36 0.34 0.34 0.31 0.27 0.29 0.23 0.19 0.29 0.24 0.23 0.24 0.18 0.20 0.20 0.16 0.14 0.14 0.22 0.23 0.24 0.21 0.26 0.26 0.26 0.14 0.15 0.19 0.21 0.25 0.27 0.28 0.27 0.25 0.26 0.27 0.27 0.28 0.29 0.31 0.31 0.32 0.34
0.74 0.73 0.71 0.70 0.69 0.66 0.63 0.60 0.58 0.56 0.54 0.52 0.51 0.49 0.49 0.47 0.49 0.50 0.52 0.50 0.53 0.52 0.51 0.47 0.38 0.24 0.17 0.19 0.37 0.49 0.53 0.49 0.40 0.39 0.43 0.37 0.33 0.33 0.35 0.40 0.38 0.38 0.37 0.36 0.34 0.36 0.36 0.34 0.31 0.25 0.22 0.28 0.27 0.23 0.19 0.20 0.21 0.21 0.15 0.13 0.16 0.13 0.16 0.20 0.25 0.24 0.20 0.24 0.27 0.24 0.16 0.14 0.17 0.21 0.23 0.26 0.27 0.26 0.24 0.26 0.26 0.27 0.27 0.28 0.29 0.30 0.31 0.32
0.78 0.74 0.74 0.72 0.70 0.69 0.66 0.63 0.59 0.57 0.55 0.54 0.51 0.52 0.51 0.51 0.49 0.50 0.53 0.52 0.54 0.54 0.52 0.36 0.28 0.27 0.17 0.15 0.27 0.52 0.41 0.30 0.34 0.46 0.48 0.43 0.38 0.33 0.38 0.38 0.39 0.39 0.38 0.36 0.39 0.38 0.36 0.34 0.26 0.26 0.25 0.25 0.22 0.19 0.17 0.16 0.17 0.19 0.15 0.14 0.13 0.15 0.16 0.17 0.22 0.24 0.25 0.23 0.25 0.22 0.15 0.18 0.16 0.21 0.24 0.27 0.26 0.26 0.24 0.24 0.26 0.26 0.27 0.27 0.28 0.28 0.29 0.31
0.78 0.77 0.75 0.73 0.72 0.69 0.68 0.65 0.62 0.60 0.57 0.55 0.54 0.54 0.54 0.53 0.53 0.52 0.53 0.54 0.51 0.52 0.43 0.27 0.27 0.24 0.14 0.23 0.43 0.28 0.26 0.32 0.45 0.46 0.47 0.46 0.43 0.39 0.37 0.36 0.34 0.35 0.37 0.38 0.37 0.36 0.35 0.28 0.29 0.27 0.26 0.21 0.21 0.19 0.13 0.12 0.12 0.13 0.16 0.13 0.16 0.13 0.15 0.13 0.20 0.23 0.24 0.23 0.19 0.22 0.18 0.16 0.18 0.20 0.22 0.23 0.24 0.24 0.23 0.23 0.24 0.25 0.26 0.27 0.27 0.28 0.29 0.30
0.83 0.78 0.77 0.74 0.72 0.71 0.69 0.66 0.65 0.61 0.60 0.56 0.54 0.52 0.51 0.54 0.57 0.51 0.47 0.46 0.47 0.39 0.34 0.37 0.33 0.21 0.16 0.27 0.18 0.20 0.34 0.33 0.36 0.42 0.46 0.47 0.45 0.41 0.38 0.33 0.35 0.34 0.34 0.32 0.36 0.29 0.33 0.25 0.27 0.20 0.21 0.20 0.19 0.17 0.11 0.08 0.09 0.10 0.12 0.12 0.13 0.15 0.15 0.14 0.14 0.19 0.21 0.22 0.19 0.19 0.18 0.17 0.18 0.19 0.20 0.22 0.24 0.23 0.22 0.23 0.23 0.25 0.26 0.26 0.27 0.27 0.28 0.30
0.89 0.83 0.79 0.76 0.74 0.71 0.70 0.68 0.65 0.65 0.61 0.58 0.56 0.57 0.56 0.57 0.54 0.48 0.36 0.34 0.24 0.20 0.16 0.20 0.19 0.13 0.12 0.17 0.30 0.33 0.36 0.39 0.42 0.39 0.38 0.42 0.43 0.44 0.41 0.40 0.36 0.31 0.26 0.25 0.27 0.27 0.30 0.26 0.26 0.20 0.15 0.16 0.15 0.15 0.12 0.12 0.13 0.12 0.13 0.13 0.14 0.12 0.13 0.13 0.16 0.21 0.21 0.18 0.17 0.17 0.15 0.15 0.17 0.18 0.18 0.19 0.21 0.21 0.21 0.22 0.22 0.22 0.23 0.24 0.25 0.26 0.27 0.29
1.04 0.94 0.86 0.81 0.78 0.76 0.71 0.70 0.69 0.65 0.63 0.56 0.53 0.46 0.39 0.29 0.27 0.25 0.33 0.30 0.22 0.21 0.20 0.21 0.21 0.23 0.23 0.28 0.26 0.42 0.49 0.45 0.31 0.35 0.38 0.44 0.41 0.39 0.37 0.35 0.32 0.31 0.26 0.20 0.24 0.25 0.29 0.18 0.16 0.14 0.14 0.16 0.18 0.18 0.17 0.16 0.16 0.16 0.16 0.15 0.14 0.14 0.14 0.17 0.18 0.22 0.25 0.19 0.16 0.17 0.17 0.17 0.17 0.17 0.18 0.19 0.21 0.20 0.20 0.19 0.19 0.20 0.20 0.21 0.22 0.23 0.24 0.26
1.16 1.08 0.98 0.90 0.83 0.80 0.77 0.72 0.70 0.68 0.65 0.59 0.51 0.33 0.23 0.22 0.17 0.16 0.22 0.25 0.29 0.27 0.25 0.26 0.24 0.22 0.23 0.31 0.36 0.33 0.28 0.31 0.36 0.33 0.35 0.47 0.40 0.36 0.31 0.30 0.26 0.20 0.22 0.24 0.23 0.30 0.26 0.18 0.15 0.17 0.18 0.19 0.20 0.20 0.20 0.18 0.18 0.16 0.16 0.15 0.15 0.15 0.13 0.17 0.18 0.23 0.25 0.18 0.16 0.17 0.16 0.15 0.16 0.17 0.17 0.18 0.18 0.16 0.17 0.17 0.17 0.18 0.19 0.20 0.20 0.21 0.23 0.25
1.18 1.19 1.12 1.02 0.94 0.86 0.83 0.78 0.74 0.70 0.68 0.59 0.48 0.31 0.30 0.29 0.33 0.35 0.24 0.17 0.23 0.28 0.28 0.28 0.31 0.25 0.34 0.35 0.41 0.41 0.34 0.26 0.28 0.34 0.41 0.40 0.34 0.26 0.30 0.26 0.21 0.17 0.23 0.23 0.23 0.20 0.18 0.15 0.17 0.20 0.22 0.22 0.22 0.21 0.21 0.19 0.18 0.18 0.16 0.16 0.15 0.15 0.17 0.19 0.20 0.22 0.23 0.20 0.15 0.18 0.15 0.14 0.15 0.16 0.17 0.17 0.16 0.16 0.17 0.17 0.17 0.18 0.19 0.19 0.20 0.21 0.23 0.25
1.17 1.20 1.20 1.14 1.06 0.97 0.91 0.88 0.78 0.74 0.62 0.51 0.41 0.37 0.33 0.43 0.51 0.52 0.36 0.25 0.22 0.28 0.25 0.24 0.22 0.24 0.26 0.34 0.37 0.41 0.26 0.22 0.21 0.30 0.35 0.36 0.31 0.28 0.28 0.23 0.21 0.21 0.22 0.21 0.16 0.16 0.14 0.15 0.20 0.23 0.23 0.21 0.20 0.21 0.20 0.20 0.20 0.18 0.17 0.15 0.13 0.16 0.13 0.12 0.19 0.21 0.22 0.19 0.16 0.17 0.16 0.14 0.15 0.16 0.15 0.15 0.16 0.16 0.17 0.18 0.19 0.20 0.19 0.18 0.19 0.22 0.24 0.25
1.21 1.19 1.17 1.19 1.15 1.08 1.01 0.93 0.89 0.71 0.59 0.52 0.47 0.41 0.51 0.58 0.52 0.44 0.30 0.21 0.19 0.23 0.26 0.27 0.25 0.23 0.23 0.22 0.34 0.30 0.23 0.24 0.25 0.26 0.42 0.34 0.26 0.31 0.26 0.24 0.21 0.21 0.18 0.19 0.18 0.15 0.14 0.18 0.24 0.23 0.22 0.21 0.18 0.20 0.19 0.18 0.16 0.19 0.18 0.17 0.15 0.15 0.16 0.15 0.16 0.20 0.22 0.22 0.22 0.19 0.16 0.14 0.14 0.12 0.13 0.15 0.18 0.18 0.17 0.19 0.19 0.20 0.20 0.21 0.23 0.24 0.25 0.25
1.26 1.22 1.20 1.18 1.17 1.14 1.06 1.02 0.83 0.71 0.64 0.55 0.48 0.56 0.63 0.62 0.54 0.49 0.28 0.23 0.22 0.21 0.33 0.28 0.31 0.27 0.27 0.39 0.38 0.26 0.26 0.26 0.26 0.33 0.40 0.35 0.29 0.27 0.25 0.29 0.24 0.19 0.20 0.22 0.20 0.18 0.17 0.22 0.26 0.22 0.22 0.21 0.19 0.18 0.19 0.19 0.16 0.17 0.20 0.18 0.17 0.18 0.17 0.18 0.19 0.18 0.16 0.15 0.19 0.17 0.10 0.10 0.13 0.13 0.12 0.13 0.15 0.14 0.17 0.17 0.17 0.16 0.18 0.20 0.21 0.22 0.24 0.27
1.25 1.26 1.25 1.21 1.17 1.14 1.13 0.85 0.80 0.86 0.69 0.49 0.52 0.60 0.65 0.65 0.62 0.47 0.30 0.22 0.17 0.21 0.27 0.19 0.32 0.23 0.36 0.26 0.31 0.28 0.27 0.19 0.29 0.32 0.39 0.39 0.42 0.30 0.28 0.24 0.25 0.18 0.21 0.22 0.20 0.21 0.20 0.24 0.23 0.20 0.20 0.21 0.20 0.18 0.21 0.22 0.17 0.15 0.16 0.21 0.20 0.19 0.19 0.19 0.18 0.17 0.12 0.10 0.19 0.22 0.10 0.08 0.12 0.11 0.11 0.13 0.13 0.12 0.15 0.16 0.15 0.16 0.17 0.19 0.21 0.22 0.24 0.26
1.25 1.29 1.28 1.26 1.21 1.16 0.92 0.76 0.95 0.89 0.63 0.54 0.62 0.66 0.68 0.60 0.67 0.54 0.27 0.21 0.16 0.24 0.21 0.28 0.27 0.30 0.33 0.31 0.29 0.25 0.13 0.15 0.34 0.36 0.35 0.42 0.33 0.39 0.24 0.22 0.24 0.25 0.27 0.28 0.20 0.17 0.23 0.22 0.22 0.22 0.20 0.19 0.19 0.17 0.21 0.21 0.18 0.15 0.22 0.22 0.21 0.19 0.18 0.18 0.18 0.17 0.15 0.19 0.21 0.21 0.18 0.12 0.10 0.10 0.12 0.14 0.13 0.13 0.13 0.14 0.15 0.15 0.17 0.19 0.21 0.23 0.25 0.27
1.21 1.25 1.25 1.24 1.23 1.20 1.02 1.01 0.94 0.81 0.76 0.74 0.75 0.68 0.71 0.65 0.62 0.51 0.27 0.17 0.15 0.27 0.23 0.28 0.30 0.45 0.36 0.36 0.33 0.20 0.21 0.31 0.19 0.29 0.38 0.41 0.37 0.32 0.25 0.22 0.21 0.21 0.24 0.22 0.13 0.23 0.22 0.20 0.20 0.19 0.19 0.18 0.16 0.19 0.22 0.23 0.19 0.18 0.24 0.25 0.21 0.21 0.21 0.20 0.19 0.17 0.18 0.15 0.11 0.17 0.21 0.11 0.10 0.12 0.14 0.14 0.11 0.12 0.12 0.12 0.13 0.15 0.18 0.20 0.22 0.24 0.26 0.28
1.19 1.23 1.24 1.24 1.24 1.25 1.22 1.07 0.99 0.89 0.95 0.93 0.82 0.75 0.71 0.69 0.53 0.33 0.25 0.16 0.25 0.24 0.44 0.26 0.49 0.38 0.36 0.38 0.29 0.28 0.24 0.29 0.20 0.32 0.40 0.40 0.40 0.33 0.22 0.24 0.25 0.25 0.27 0.24 0.17 0.21 0.24 0.25 0.25 0.24 0.20 0.17 0.20 0.22 0.24 0.24 0.19 0.25 0.27 0.27 0.26 0.25 0.24 0.22 0.19 0.18 0.16 0.14 0.09 0.14 0.17 0.10 0.07 0.11 0.11 0.14 0.13 0.11 0.10 0.12 0.14 0.16 0.18 0.20 0.21 0.24 0.26 0.29
1.14 1.18 1.22 1.24 1.23 1.17 1.14 1.16 1.06 1.13 1.10 1.04 0.92 0.78 0.77 0.59 0.42 0.28 0.22 0.16 0.27 0.20 0.31 0.34 0.32 0.28 0.34 0.27 0.26 0.29 0.24 0.27 0.32 0.36 0.38 0.32 0.34 0.35 0.32 0.35 0.27 0.24 0.23 0.27 0.24 0.24 0.27 0.33 0.33 0.26 0.22 0.23 0.24 0.26 0.27 0.26 0.25 0.30 0.29 0.25 0.24 0.23 0.22 0.23 0.22 0.20 0.16 0.09 0.10 0.15 0.16 0.12 0.07 0.10 0.10 0.10 0.10 0.11 0.12 0.13 0.14 0.16 0.18 0.20 0.22 0.25 0.28 0.30
1.05 1.12 1.15 1.20 1.04 1.10 1.10 0.96 1.07 1.18 1.17 1.13 0.98 0.78 0.68 0.51 0.35 0.27 0.21 0.23 0.28 0.29 0.35 0.33 0.29 0.38 0.30 0.26 0.22 0.29 0.28 0.31 0.30 0.32 0.29 0.35 0.31 0.32 0.30 0.26 0.31 0.24 0.22 0.23 0.22 0.24 0.26 0.28 0.25 0.27 0.31 0.29 0.29 0.25 0.30 0.30 0.30 0.29 0.24 0.21 0.20 0.19 0.22 0.20 0.19 0.20 0.11 0.08 0.14 0.16 0.16 0.16 0.07 0.08 0.11 0.14 0.16 0.14 0.13 0.12 0.12 0.15 0.18 0.21 0.23 0.25 0.28 0.31
0.93 1.02 1.11 1.12 1.14 1.18 0.96 0.93 1.13 1.20 1.16 1.14 0.98 0.72 0.56 0.37 0.40 0.28 0.24 0.36 0.24 0.29 0.29 0.28 0.34 0.32 0.30 0.31 0.28 0.27 0.25 0.30 0.32 0.30 0.26 0.27 0.26 0.24 0.23 0.17 0.21 0.15 0.14 0.15 0.15 0.23 0.20 0.21 0.26 0.27 0.32 0.27 0.24 0.22 0.25 0.28 0.29 0.26 0.23 0.20 0.13 0.12 0.12 0.10 0.14 0.09 0.10 0.08 0.14 0.17 0.18 0.14 0.10 0.09 0.14 0.15 0.15 0.15 0.15 0.16 0.16 0.19 0.20 0.21 0.23 0.26 0.28 0.31
0.82 0.89 1.00 1.10 1.11 1.06 1.09 1.17 1.20 1.20 1.14 1.06 0.88 0.68 0.47 0.37 0.28 0.33 0.31 0.33 0.29 0.37 0.34 0.38 0.32 0.32 0.31 0.30 0.28 0.30 0.33 0.26 0.34 0.32 0.32 0.31 0.28 0.27 0.29 0.25 0.24 0.19 0.12 0.16 0.16 0.16 0.18 0.24 0.25 0.26 0.28 0.30 0.27 0.17 0.20 0.19 0.23 0.22 0.18 0.16 0.12 0.09 0.09 0.07 0.09 0.11 0.10 0.12 0.17 0.16 0.21 0.11 0.11 0.13 0.15 0.14 0.15 0.17 0.19 0.20 0.22 0.22 0.22 0.20 0.23 0.27 0.29 0.31
0.74 0.79 0.83 0.97 1.04 1.06 1.10 1.14 1.15 1.17 1.09 1.01 0.82 0.59 0.48 0.36 0.32 0.42 0.36 0.37 0.37 0.45 0.43 0.38 0.38 0.37 0.34 0.28 0.29 0.32 0.27 0.32 0.33 0.32 0.34 0.29 0.29 0.24 0.26 0.28 0.27 0.22 0.19 0.19 0.15 0.16 0.12 0.12 0.18 0.22 0.18 0.28 0.25 0.20 0.18 0.16 0.19 0.19 0.22 0.18 0.13 0.11 0.08 0.07 0.08 0.07 0.07 0.09 0.14 0.19 0.15 0.09 0.09 0.09 0.17 0.20 0.20 0.20 0.20 0.21 0.22 0.22 0.22 0.22 0.26 0.27 0.29 0.31
0.71 0.72 0.78 0.85 0.91 1.01 1.06 1.09 1.08 1.10 0.99 0.87 0.69 0.55 0.37 0.35 0.41 0.38 0.38 0.40 0.42 0.44 0.40 0.46 0.39 0.37 0.34 0.34 0.36 0.35 0.33 0.27 0.36 0.33 0.31 0.29 0.25 0.25 0.23 0.24 0.28 0.27 0.24 0.17 0.19 0.18 0.15 0.14 0.21 0.26 0.26 0.27 0.21 0.25 0.25 0.22 0.21 0.24 0.25 0.24 0.16 0.12 0.14 0.09 0.11 0.10 0.10 0.10 0.11 0.13 0.11 0.12 0.11 0.17 0.17 0.19 0.19 0.18 0.20 0.19 0.20 0.19 0.21 0.24 0.25 0.26 0.27 0.30
0.62 0.64 0.70 0.68 0.75 0.89 1.00 1.03 1.05 1.02 0.91 0.74 0.56 0.44 0.40 0.44 0.38 0.48 0.45 0.52 0.48 0.42 0.43 0.43 0.41 0.36 0.35 0.34 0.38 0.34 0.40 0.31 0.34 0.34 0.32 0.31 0.30 0.26 0.28 0.28 0.27 0.27 0.22 0.17 0.20 0.15 0.17 0.15 0.22 0.26 0.30 0.28 0.27 0.29 0.27 0.26 0.14 0.22 0.24 0.17 0.17 0.23 0.18 0.14 0.14 0.16 0.15 0.13 0.09 0.13 0.11 0.11 0.14 0.13 0.14 0.14 0.14 0.15 0.16 0.17 0.18 0.19 0.21 0.23 0.23 0.25 0.29 0.31
0.49 0.56 0.51 0.61 0.67 0.86 0.94 0.99 0.99 0.93 0.83 0.65 0.49 0.41 0.47 0.50 0.57 0.54 0.59 0.52 0.50 0.49 0.44 0.35 0.37 0.35 0.33 0.33 0.35 0.36 0.37 0.38 0.36 0.33 0.27 0.34 0.29 0.30 0.28 0.28 0.31 0.29 0.28 0.23 0.21 0.25 0.17 0.17 0.25 0.25 0.22 0.30 0.35 0.33 0.32 0.30 0.29 0.25 0.18 0.20 0.26 0.28 0.25 0.17 0.11 0.14 0.12 0.10 0.09 0.12 0.09 0.08 0.09 0.07 0.13 0.14 0.14 0.16 0.16 0.17 0.17 0.18 0.21 0.21 0.23 0.25 0.28 0.31
0.40 0.43 0.46 0.50 0.62 0.82 0.90 0.94 0.91 0.81 0.68 0.56 0.46 0.44 0.53 0.48 0.60 0.57 0.62 0.59 0.56 0.53 0.45 0.41 0.42 0.43 0.37 0.35 0.35 0.38 0.41 0.35 0.35 0.36 0.30 0.33 0.26 0.33 0.29 0.28 0.32 0.30 0.29 0.31 0.23 0.24 0.25 0.17 0.22 0.29 0.29 0.32 0.37 0.34 0.30 0.33 0.35 0.26 0.23 0.33 0.20 0.17 0.15 0.20 0.16 0.11 0.09 0.09 0.10 0.11 0.11 0.11 0.10 0.09 0.12 0.11 0.12 0.13 0.15 0.16 0.18 0.20 0.21 0.23 0.23 0.25 0.28 0.31
0.35 0.33 0.26 0.40 0.59 0.72 0.87 0.91 0.81 0.67 0.56 0.43 0.42 0.43 0.51 0.50 0.59 0.59 0.61 0.61 0.59 0.53 0.46 0.47 0.42 0.45 0.43 0.38 0.39 0.42 0.43 0.35 0.39 0.36 0.31 0.35 0.28 0.33 0.30 0.31 0.29 0.33 0.34 0.33 0.27 0.27 0.27 0.19 0.21 0.31 0.30 0.33 0.34 0.31 0.20 0.24 0.33 0.35 0.34 0.28 0.31 0.23 0.19 0.16 0.16 0.15 0.13 0.10 0.10 0.08 0.10 0.08 0.11 0.11 0.12 0.12 0.13 0.14 0.16 0.18 0.19 0.21 0.23 0.24 0.24 0.26 0.28 0.29
0.26 0.20 0.18 0.43 0.55 0.67 0.80 0.83 0.68 0.60 0.46 0.34 0.35 0.38 0.49 0.47 0.53 0.59 0.62 0.62 0.57 0.54 0.51 0.50 0.51 0.45 0.46 0.45 0.44 0.39 0.44 0.42 0.40 0.39 0.37 0.38 0.34 0.41 0.35 0.39 0.33 0.35 0.38 0.38 0.32 0.34 0.25 0.27 0.17 0.27 0.34 0.33 0.24 0.27 0.21 0.23 0.22 0.25 0.26 0.24 0.25 0.24 0.27 0.25 0.24 0.17 0.14 0.12 0.11 0.10 0.08 0.09 0.11 0.14 0.13 0.14 0.15 0.17 0.19 0.19 0.21 0.23 0.24 0.25 0.27 0.29 0.30 0.32
0.33 0.19 0.20 0.44 0.57 0.62 0.68 0.62 0.49 0.43 0.41 0.42 0.42 0.41 0.45 0.42 0.49 0.54 0.60 0.64 0.60 0.66 0.58 0.55 0.54 0.48 0.48 0.47 0.46 0.48 0.43 0.43 0.43 0.40 0.40 0.39 0.38 0.31 0.41 0.40 0.41 0.38 0.42 0.40 0.36 0.34 0.27 0.25 0.19 0.25 0.26 0.24 0.23 0.29 0.28 0.28 0.26 0.24 0.22 0.21 0.21 0.20 0.19 0.16 0.15 0.23 0.20 0.15 0.13 0.12 0.09 0.10 0.12 0.16 0.16 0.17 0.18 0.19 0.21 0.22 0.23 0.23 0.25 0.27 0.29 0.31 0.34 0.35
0.24 0.10 0.14 0.48 0.60 0.58 0.44 0.31 0.36 0.43 0.40 0.37 0.35 0.40 0.40 0.54 0.49 0.51 0.55 0.59 0.59 0.54 0.62 0.56 0.57 0.55 0.54 0.51 0.51 0.50 0.48 0.45 0.45 0.43 0.44 0.38 0.41 0.39 0.44 0.48 0.46 0.46 0.40 0.35 0.34 0.37 0.34 0.31 0.26 0.23 0.22 0.23 0.27 0.33 0.36 0.36 0.34 0.31 0.29 0.24 0.26 0.24 0.22 0.18 0.14 0.17 0.21 0.20 0.20 0.18 0.14 0.11 0.15 0.17 0.19 0.19 0.21 0.23 0.24 0.24 0.23 0.25 0.27 0.30 0.32 0.33 0.37 0.40
0.20 0.14 0.43 0.43 0.62 0.54 0.35 0.24 0.29 0.31 0.33 0.35 0.45 0.49 0.54 0.47 0.46 0.50 0.49 0.53 0.50 0.55 0.52 0.50 0.50 0.49 0.52 0.51 0.52 0.50 0.51 0.46 0.47 0.43 0.44 0.44 0.43 0.45 0.48 0.50 0.51 0.48 0.47 0.43 0.44 0.43 0.42 0.32 0.27 0.26 0.29 0.33 0.35 0.38 0.39 0.39 0.37 0.32 0.31 0.31 0.28 0.24 0.25 0.23 0.21 0.22 0.19 0.20 0.18 0.17 0.15 0.13 0.16 0.21 0.21 0.22 0.25 0.27 0.26 0.27 0.26 0.26 0.28 0.32 0.34 0.35 0.38 0.42
0.22 0.19 0.28 0.45 0.60 0.58 0.31 0.16 0.17 0.22 0.24 0.31 0.39 0.43 0.51 0.47 0.46 0.45 0.45 0.48 0.46 0.47 0.47 0.48 0.51 0.53 0.48 0.54 0.52 0.47 0.52 0.42 0.50 0.49 0.46 0.49 0.45 0.54 0.54 0.52 0.53 0.48 0.46 0.45 0.40 0.47 0.37 0.38 0.32 0.27 0.26 0.28 0.30 0.33 0.34 0.39 0.37 0.32 0.29 0.31 0.32 0.31 0.31 0.31 0.29 0.29 0.21 0.21 0.18 0.17 0.13 0.13 0.19 0.22 0.23 0.24 0.26 0.26 0.25 0.27 0.30 0.29 0.31 0.35 0.38 0.38 0.40 0.44
0.24 0.26 0.27 0.35 0.50 0.53 0.30 0.27 0.19 0.18 0.19 0.21 0.27 0.31 0.36 0.42 0.49 0.48 0.46 0.45 0.50 0.49 0.48 0.46 0.50 0.52 0.50 0.53 0.50 0.51 0.53 0.48 0.43 0.51 0.50 0.51 0.49 0.57 0.58 0.58 0.59 0.54 0.55 0.56 0.52 0.54 0.42 0.39 0.36 0.28 0.24 0.20 0.19 0.19 0.20 0.23 0.28 0.33 0.34 0.33 0.33 0.32 0.31 0.30 0.25 0.26 0.21 0.21 0.21 0.19 0.17 0.18 0.21 0.23 0.23 0.25 0.26 0.27 0.29 0.30 0.32 0.34 0.33 0.37 0.42 0.41 0.43 0.46
0.19 0.09 0.16 0.23 0.32 0.39 0.38 0.39 0.31 0.24 0.19 0.20 0.22 0.25 0.31 0.32 0.42 0.47 0.49 0.47 0.51 0.50 0.50 0.49 0.52 0.54 0.50 0.49 0.46 0.46 0.46 0.51 0.45 0.43 0.46 0.44 0.47 0.52 0.55 0.57 0.57 0.56 0.58 0.60 0.58 0.55 0.46 0.45 0.42 0.37 0.32 0.27 0.27 0.28 0.37 0.37 0.36 0.31 0.32 0.34 0.35 0.37 0.38 0.35 0.33 0.29 0.24 0.22 0.22 0.23 0.22 0.19 0.19 0.22 0.23 0.24 0.26 0.26 0.28 0.30 0.32 0.33 0.38 0.39 0.43 0.45 0.44 0.46
0.26 0.12 0.13 0.10 0.23 0.27 0.27 0.34 0.30 0.29 0.22 0.24 0.19 0.23 0.21 0.25 0.32 0.40 0.50 0.40 0.49 0.47 0.48 0.47 0.47 0.44 0.45 0.46 0.43 0.43 0.46 0.45 0.49 0.46 0.44 0.42 0.46 0.50 0.56 0.55 0.55 0.55 0.57 0.57 0.59 0.54 0.47 0.43 0.44 0.43 0.40 0.39 0.38 0.38 0.42 0.40 0.35 0.35 0.33 0.34 0.37 0.37 0.37 0.35 0.31 0.26 0.28 0.26 0.22 0.24 0.25 0.23 0.20 0.21 0.24 0.25 0.28 0.29 0.31 0.33 0.34 0.38 0.38 0.37 0.40 0.45 0.47 0.48
0.17 0.18 0.18 0.18 0.13 0.13 0.16 0.21 0.27 0.26 0.28 0.30 0.24 0.26 0.21 0.21 0.25 0.26 0.39 0.43 0.45 0.49 0.41 0.45 0.47 0.46 0.45 0.42 0.42 0.38 0.41 0.42 0.44 0.41 0.44 0.45 0.45 0.49 0.48 0.54 0.51 0.54 0.56 0.54 0.59 0.51 0.46 0.40 0.43 0.45 0.42 0.43 0.42 0.43 0.45 0.43 0.41 0.39 0.39 0.38 0.38 0.40 0.40 0.36 0.34 0.33 0.31 0.27 0.23 0.24 0.26 0.25 0.23 0.23 0.26 0.27 0.29 0.30 0.31 0.33 0.35 0.37 0.38 0.39 0.41 0.43 0.46 0.46
0.26 0.26 0.21 0.26 0.15 0.16 0.17 0.17 0.24 0.27 0.27 0.30 0.28 0.26 0.23 0.22 0.20 0.24 0.27 0.32 0.39 0.40 0.43 0.33 0.37 0.40 0.43 0.45 0.43 0.37 0.39 0.35 0.37 0.43 0.41 0.41 0.43 0.45 0.44 0.48 0.52 0.55 0.54 0.53 0.54 0.55 0.48 0.41 0.42 0.44 0.42 0.42 0.42 0.43 0.45 0.42 0.41 0.41 0.40 0.41 0.41 0.41 0.41 0.39 0.36 0.35 0.34 0.32 0.33 0.31 0.28 0.27 0.28 0.26 0.29 0.31 0.34 0.35 0.35 0.38 0.39 0.38 0.39 0.40 0.41 0.43 0.43 0.45
0.21 0.18 0.17 0.24 0.24 0.21 0.20 0.20 0.20 0.23 0.23 0.30 0.24 0.25 0.24 0.23 0.21 0.26 0.30 0.28 0.26 0.31 0.41 0.34 0.34 0.39 0.41 0.43 0.43 0.38 0.39 0.40 0.38 0.37 0.43 0.43 0.42 0.45 0.43 0.44 0.46 0.54 0.55 0.50 0.51 0.51 0.47 0.41 0.45 0.45 0.42 0.41 0.42 0.44 0.45 0.44 0.42 0.40 0.42 0.43 0.43 0.42 0.41 0.40 0.38 0.37 0.38 0.38 0.37 0.34 0.31 0.29 0.31 0.34 0.35 0.36 0.39 0.39 0.39 0.39 0.39 0.40 0.40 0.41 0.42 0.43 0.45 0.45
0.34 0.31 0.31 0.21 0.15 0.19 0.21 0.19 0.18 0.17 0.18 0.24 0.24 0.25 0.26 0.26 0.25 0.29 0.30 0.36 0.30 0.26 0.32 0.30 0.31 0.35 0.40 0.42 0.42 0.41 0.45 0.45 0.44 0.41 0.43 0.45 0.39 0.46 0.43 0.45 0.51 0.46 0.50 0.48 0.51 0.49 0.49 0.43 0.47 0.46 0.39 0.38 0.40 0.40 0.42 0.44 0.44 0.42 0.41 0.41 0.39 0.37 0.33 0.34 0.34 0.37 0.37 0.34 0.35 0.37 0.34 0.29 0.29 0.37 0.39 0.38 0.39 0.38 0.37 0.39 0.40 0.41 0.42 0.43 0.44 0.45 0.45 0.46
0.38 0.40 0.35 0.28 0.16 0.20 0.18 0.22 0.21 0.18 0.13 0.17 0.19 0.20 0.24 0.25 0.28 0.32 0.27 0.36 0.37 0.37 0.36 0.37 0.37 0.36 0.35 0.38 0.38 0.41 0.47 0.51 0.51 0.51 0.51 0.52 0.53 0.52 0.53 0.52 0.51 0.48 0.44 0.46 0.50 0.45 0.46 0.42 0.40 0.41 0.36 0.34 0.35 0.38 0.40 0.41 0.40 0.36 0.35 0.35 0.34 0.34 0.36 0.38 0.40 0.39 0.38 0.38 0.36 0.34 0.31 0.34 0.36 0.39 0.38 0.37 0.39 0.40 0.41 0.42 0.43 0.44 0.45 0.46 0.46 0.46 0.47 0.49
Wind_Speed
28 27 27 26 26 25 24 24 23 22 22 21 20 20 19 18 18 17 16 16 16 15 15 15 14 14 13 13 12 12 12 13 13 13 13 13 13 13 13 13 13 13 13 13 13 13 12 11 11 11 11 11 10 10 10 9 9 9 9 9 9 8 7 7 7 5 3 3 4 4 5 5 3 3 3 3 4 4 4 4 5 5 5 5 4 4 4 5
28 28 27 27 26 25 25 24 23 23 22 21 21 20 20 19 18 17 17 16 16 16 15 15 15 14 14 13 13 13 13 13 13 13 13 13 13 14 14 13 13 13 13 13 13 13 12 12 11 11 11 11 10 11 11 10 9 9 9 9 9 8 7 6 7 6 4 3 4 4 5 5 4 3 4 4 4 4 5 5 5 6 6 6 5 5 5 6
29 28 27 27 26 26 25 24 24 23 23 22 21 21 20 20 19 18 17 17 16 16 16 16 15 15 14 14 13 13 13 14 13 13 13 13 13 14 14 14 13 13 13 13 13 13 13 12 12 12 11 11 10 11 11 10 10 9 9 10 9 7 7 7 7 6 4 4 4 5 5 5 4 4 4 5 4 4 6 5 5 6 7 6 6 6 6 7
29 29 28 27 27 26 26 25 24 24 23 23 22 21 21 20 19 19 18 18 17 17 16 16 16 15 15 14 14 14 14 14 14 13 13 13 13 14 14 14 13 13 13 13 13 13 13 12 12 12 12 11 10 11 10 10 10 10 10 10 8 8 8 7 8 6 5 5 5 4 4 5 4 4 5 5 5 5 6 7 7 7 7 6 5 5 6 7
29 29 28 28 27 27 26 26 25 24 24 23 23 22 21 21 20 19 19 18 18 17 17 17 16 16 15 15 15 14 14 14 14 14 13 13 13 14 14 14 13 13 13 13 13 13 13 12 12 12 11 11 11 11 10 10 10 10 10 9 8 8 8 7 8 7 6 6 5 5 5 5 4 5 6 6 6 5 5 7 7 7 6 5 4 5 5 7
29 29 29 28 28 27 27 26 26 25 24 24 23 23 22 21 21 20 20 19 18 18 18 17 17 16 16 15 15 15 15 14 13 14 14 13 13 14 14 13 13 13 13 13 13 13 13 13 13 12 11 11 11 11 11 10 11 10 10 9 9 8 7 7 8 7 7 7 6 6 6 5 6 6 6 8 9 6 4 5 5 5 5 4 4 5 6 6
29 29 29 29 28 27 27 26 26 25 25 24 24 23 23 22 22 21 20 20 19 19 18 18 17 17 16 16 16 15 15 13 13 14 14 13 14 14 14 13 13 13 13 13 13 13 13 13 13 12 11 11 11 11 10 11 11 11 10 10 9 8 8 8 8 7 8 8 7 7 7 6 7 7 6 8 11 9 7 6 5 5 5 5 5 6 6 7
29 29 29 29 28 28 27 27 26 26 25 25 24 24 23 23 22 22 21 20 20 19 19 18 18 17 17 17 16 15 15 14 13 14 14 14 14 14 14 13 13 13 13 13 13 13 13 13 13 12 11 11 11 11 11 11 10 10 10 10 10 9 8 8 8 8 8 8 7 7 8 7 7 7 7 9 11 10 9 8 7 7 7 7 7 7 7 7
29 29 29 29 28 28 27 27 26 26 25 25 25 24 24 23 23 22 22 21 20 20 19 19 18 18 17 17 16 16 15 14 14 14 14 14 14 14 14 14 13 13 13 12 13 14 13 13 13 13 12 11 11 11 11 12 10 10 10 10 10 9 8 8 8 8 8 8 8 9 8 7 8 7 8 11 11 9 9 9 9 9 9 9 9 9 8 8
29 28 29 29 28 28 28 27 27 26 26 25 25 24 24 24 23 23 22 22 21 20 20 19 18 18 18 17 17 17 16 15 15 15 14 15 15 14 14 14 14 14 13 12 13 13 13 13 13 13 12 11 11 11 11 11 10 10 10 9 9 9 9 9 8 8 8 8 8 9 9 8 8 8 9 8 8 8 9 9 9 10 11 11 10 10 10 10
28 28 28 28 28 28 28 27 27 27 26 26 25 25 24 24 23 23 23 22 22 21 20 20 19 19 18 18 18 17 16 16 16 15 15 15 15 15 14 14 14 14 13 13 13 13 13 13 13 12 12 12 12 11 10 11 10 10 10 10 8 9 9 9 9 8 9 9 8 9 10 9 8 9 9 7 6 7 8 9 10 10 11 11 11 11 11 11
28 28 28 28 28 28 27 27 27 27 26 26 26 25 25 24 24 23 23 23 22 22 21 20 20 19 19 18 18 17 16 17 16 16 16 16 15 15 15 14 14 14 14 13 13 13 13 13 13 12 12 13 12 11 11 11 11 10 11 11 10 10 10 9 9 9 9 9 8 9 11 12 11 11 10 8 9 9 9 10 10 11 11 11 11 12 12 12
28 28 28 28 28 28 27 27 27 27 27 26 26 26 25 25 24 24 24 23 23 22 22 21 20 20 20 19 18 18 17 17 17 17 16 16 16 16 15 15 14 14 14 14 13 13 13 14 14 12 12 13 12 12 11 11 11 11 11 11 11 12 11 10 9 10 10 9 9 9 11 11 11 12 10 8 10 10 11 12 12 12 12 12 12 12 13 13
28 28 28 28 28 28 28 27 27 27 27 27 26 26 26 25 25 25 24 24 24 23 23 22 21 21 20 19 19 19 19 18 18 18 17 17 17 16 15 15 14 14 14 13 14 14 13 14 13 13 13 12 12 12 12 11 12 12 12 12 12 12 11 10 10 10 11 10 9 10 12 12 10 10 9 9 10 11 13 13 13 14 13 13 13 13 14 14
27 28 28 28 28 28 28 27 27 27 27 27 26 26 26 26 26 25 25 25 24 24 23 23 22 21 21 20 20 20 20 19 19 18 18 18 17 16 16 15 15 14 14 13 14 13 13 14 13 13 13 13 13 13 12 12 12 12 13 12 12 13 12 10 10 11 11 10 10 11 11 12 11 10 8 9 10 10 13 13 14 14 14 14 14 14 15 15
27 27 28 28 28 28 28 27 27 27 27 27 27 27 26 26 26 26 26 25 25 24 24 23 23 22 21 21 21 21 21 20 20 19 19 19 18 17 17 16 15 15 14 14 14 14 13 13 13 13 13 14 14 14 13 13 13 13 13 13 12 13 12 11 10 11 11 10 11 12 11 11 11 9 8 9 9 10 12 14 14 15 15 15 15 15 15 15
27 27 27 28 28 28 28 27 27 27 27 27 27 27 27 27 26 26 26 25 25 25 24 24 23 23 22 21 22 22 22 21 21 20 20 19 19 18 18 17 16 15 15 15 15 14 14 14 14 14 14 14 14 14 14 15 15 14 14 13 13 13 12 12 11 11 11 12 12 13 13 14 13 12 12 12 11 12 14 16 16 16 16 16 16 16 16 16
26 27 27 27 28 28 28 28 27 27 27 27 27 27 27 27 26 26 26 26 25 25 25 24 24 23 23 23 23 22 22 22 21 21 20 20 20 19 18 18 17 17 16 16 15 15 15 14 15 15 15 15 15 16 16 15 15 15 14 14 13 13 14 13 12 11 11 12 13 14 15 16 16 15 16 16 14 14 16 17 18 18 18 18 18 18 18 18
25 27 27 27 27 28 28 28 28 27 27 27 27 27 27 26 26 27 27 27 27 26 26 26 26 24 23 23 23 21 22 22 22 22 21 21 20 20 19 18 18 18 17 17 16 15 15 15 16 16 16 16 17 17 16 14 14 13 13 13 13 14 14 13 13 12 12 14 15 16 17 17 17 17 18 18 16 15 17 18 18 19 20 20 20 20 20 20
26 26 26 27 27 27 27 27 28 27 27 27 27 27 27 27 26 27 28 28 28 27 26 26 27 25 22 22 23 22 22 22 23 23 22 22 22 21 19 19 19 18 18 18 17 16 16 17 18 17 16 17 17 15 14 13 13 13 13 14 14 14 14 13 12 12 13 15 16 16 17 18 18 18 18 18 17 17 18 18 19 20 20 21 21 21 21 21
29 27 26 27 27 27 26 27 27 27 27 28 28 28 27 27 27 27 28 28 29 28 26 26 27 26 24 23 24 24 23 22 23 23 24 23 23 22 21 21 21 20 19 18 17 17 18 19 19 17 15 15 16 15 14 14 14 14 15 15 15 15 15 13 13 13 13 15 16 15 18 19 19 19 19 19 18 18 19 19 19 20 21 21 22 22 22 22
30 29 28 27 27 27 26 26 26 27 27 28 28 28 27 28 27 26 27 27 28 29 28 28 27 27 26 25 25 25 24 23 23 24 24 24 24 24 22 22 22 21 20 19 19 19 20 20 18 16 15 15 15 16 16 15 15 15 15 15 15 15 15 14 13 14 14 16 16 16 18 20 20 20 20 20 20 20 21 21 21 21 21 22 22 22 22 22
32 31 29 28 27 28 27 26 26 26 27 28 28 28 27 27 27 27 27 26 27 29 29 29 29 29 28 27 27 26 25 24 24 25 26 25 25 24 23 23 22 21 21 22 22 21 21 20 17 17 18 17 16 17 17 16 17 17 16 16 16 15 15 15 14 14 15 16 17 18 20 21 21 21 20 20 20 21 21 21 22 22 22 23 24 23 22 23
33 32 31 30 28 28 28 27 27 27 27 28 28 28 28 27 27 27 27 26 27 28 29 30 30 30 29 28 28 28 27 25 25 26 27 27 25 24 24 23 22 23 23 24 23 23 21 18 18 18 19 18 18 18 18 18 18 18 18 18 17 16 16 17 16 16 17 17 17 19 21 21 20 19 19 17 17 18 19 19 20 22 22 23 23 23 23 24
32 33 33 32 30 29 27 27 27 27 28 28 29 28 28 28 27 27 26 27 28 28 29 30 30 30 30 29 29 28 27 27 26 26 27 27 26 25 24 23 24 25 24 23 23 24 22 20 20 19 18 18 19 19 20 20 19 19 19 20 20 18 17 17 16 17 18 17 17 18 19 19 18 19 19 16 16 17 17 17 20 21 21 21 21 22 23 24
30 31 32 33 32 30 28 28 27 27 28 28 29 29 28 28 27 27 26 26 29 30 29 30 30 30 30 30 29 28 27 28 27 26 27 28 27 25 25 24 24 24 23 22 23 24 23 21 21 20 20 19 19 20 20 20 20 19 19 20 20 18 17 18 17 18 18 18 17 18 19 20 20 21 20 18 19 20 17 17 20 21 21 21 21 22 23 23
30 31 32 32 33 32 30 29 28 27 27 28 29 29 28 28 27 27 26 26 29 30 30 30 31 30 30 30 30 29 28 28 27 27 28 27 27 26 26 26 24 24 23 23 24 24 23 22 22 21 21 21 21 21 20 21 21 20 19 19 19 19 19 19 18 19 19 19 20 20 20 22 23 22 19 17 20 21 19 19 20 21 21 21 22 22 22 22
31 32 32 32 33 33 31 30 30 28 27 27 28 29 28 28 27 26 26 26 27 28 29 31 31 30 30 30 30 29 28 27 26 28 28 28 27 26 27 27 25 24 24 25 26 24 23 23 24 23 23 23 23 21 21 22 22 20 20 19 18 18 18 18 18 19 20 20 21 19 18 21 23 21 17 17 19 20 20 20 20 19 19 20 20 20 20 20
29 31 33 34 34 33 32 32 31 30 28 27 28 29 29 27 27 26 25 26 27 27 27 30 31 31 31 30 30 29 29 28 27 27 28 28 28 27 26 27 25 24 24 25 26 24 23 24 24 24 24 24 22 20 22 24 22 21 20 19 17 17 17 18 19 20 19 21 21 19 18 20 24 22 18 17 18 19 19 18 17 17 18 19 19 18 18 19
28 29 31 33 33 33 33 32 32 31 30 29 28 30 29 27 27 26 26 28 29 28 27 28 30 31 32 32 30 29 30 29 28 27 27 27 27 27 26 26 25 25 25 25 25 25 24 24 24 24 24 23 21 20 21 22 22 22 21 19 18 18 19 19 20 19 20 22 21 19 19 19 21 20 16 16 17 16 16 16 16 18 18 18 17 17 17 18
29 29 30 32 33 32 32 32 33 32 31 30 29 30 30 28 27 27 28 28 29 29 29 29 29 30 32 32 31 31 30 29 29 29 28 28 27 27 27 27 26 26 27 28 27 26 26 26 25 25 24 23 22 21 21 22 23 23 22 21 20 20 20 20 20 20 21 22 19 19 19 20 22 19 15 16 18 18 18 19 19 18 18 17 17 17 18 18
30 30 31 33 33 32 31 31 31 32 32 31 30 31 31 30 29 31 29 27 27 30 31 30 30 31 31 30 29 30 30 30 31 31 29 29 29 29 30 29 28 27 28 30 28 27 28 28 26 25 26 27 25 23 22 23 24 24 23 22 22 20 20 21 21 20 22 22 20 20 20 22 27 26 23 24 24 23 21 20 20 18 19 21 20 19 19 18
31 31 32 33 34 33 32 30 30 31 31 31 30 29 30 31 32 35 33 29 26 27 28 29 30 30 30 30 29 29 29 30 31 30 30 30 31 31 30 30 29 28 28 28 28 27 28 28 28 28 28 29 29 27 26 26 26 26 25 24 23 21 21 23 21 21 23 22 21 21 21 24 28 27 26 27 26 23 20 19 20 20 23 26 24 21 21 21
31 32 32 33 33 34 34 32 31 31 30 30 29 28 29 31 32 34 36 32 28 25 25 26 28 29 30 30 29 29 29 30 30 30 29 30 31 33 32 31 31 30 28 28 28 29 28 28 29 30 29 30 32 30 28 26 27 28 27 26 26 25 24 24 22 22 22 20 20 21 22 24 24 22 22 22 22 23 22 22 23 25 27 27 25 24 24 24
32 32 33 33 34 34 35 34 33 32 31 29 28 28 30 31 30 32 34 33 31 28 26 25 26 27 30 29 28 29 29 30 30 30 30 31 31 32 32 33 33 31 29 30 29 28 30 29 28 27 26 28 30 28 26 26 27 28 26 27 29 28 27 24 23 23 21 21 22 23 25 27 26 26 27 26 27 27 26 25 25 26 26 25 26 27 26 26
33 33 33 34 34 35 35 35 35 34 33 31 29 31 32 30 29 30 31 31 32 31 28 26 26 27 29 29 29 30 29 29 29 30 31 31 31 32 31 31 32 32 32 31 29 28 29 29 28 27 27 27 27 26 26 27 27 27 28 30 30 28 27 25 25 24 23 25 26 26 29 32 30 31 31 29 30 28 26 25 25 26 27 25 26 27 26 27
34 33 34 34 35 35 35 36 35 35 34 32 32 34 33 30 29 28 28 28 30 31 31 31 30 29 30 30 31 31 30 29 29 30 30 30 31 32 32 31 31 33 34 31 30 30 28 28 28 27 28 27 27 26 26 27 27 27 29 30 28 27 27 26 26 24 24 28 27 27 31 32 29 29 27 25 27 28 27 27 27 28 28 27 27 27 26 27
34 34 35 35 36 36 36 36 36 35 34 32 33 33 33 32 30 29 28 27 27 29 31 31 31 30 31 31 31 31 31 31 31 31 31 30 31 32 32 31 31 34 34 31 30 31 30 28 28 27 27 26 26 27 28 28 28 29 30 28 27 27 27 27 27 26 26 27 27 27 30 31 31 32 29 27 28 29 29 28 27 27 27 27 29 29 26 26
34 34 34 35 36 37 37 37 36 36 35 35 35 34 34 33 32 31 30 28 27 27 28 29 29 29 30 31 30 30 32 32 32 33 32 32 32 32 32 32 31 33 34 33 32 31 30 30 29 28 28 27 27 30 31 30 29 29 30 28 28 28 27 27 27 27 27 27 27 28 29 31 33 32 30 31 31 30 29 27 26 26 27 28 30 29 27 26
33 34 34 34 36 37 37 36 35 35 35 37 37 35 34 34 33 34 34 31 29 28 28 28 28 28 29 29 29 29 31 31 32 33 33 33 33 33 32 32 30 30 32 33 33 31 31 32 30 29 29 29 30 32 33 32 30 30 31 30 30 29 28 28 29 28 28 27 27 28 29 33 33 29 29 31 30 29 29 27 26 27 29 29 29 29 28 27
32 33 34 34 35 37 37 36 36 36 36 37 37 36 35 34 34 35 36 34 32 31 29 29 28 28 28 28 28 28 29 30 31 32 32 33 34 32 31 31 30 28 29 31 32 32 32 33 32 31 31 33 33 31 31 31 31 31 32 32 33 32 30 29 29 29 29 29 28 27 30 35 34 29 30 32 30 30 29 28 28 29 30 29 29 29 29 28
32 32 33 33 36 38 37 37 37 37 38 38 37 36 35 35 34 35 36 35 34 32 32 31 31 30 29 28 27 27 27 28 30 31 31 32 33 32 29 29 28 28 28 29 31 31 30 32 33 33 34 34 32 30 30 31 31 31 32 33 33 34 34 32 30 28 29 30 30 29 31 36 34 30 31 32 30 30 29 29 30 31 31 31 31 30 29 28
33 32 32 33 36 38 37 37 38 38 39 39 37 36 36 36 35 35 36 36 35 33 33 33 33 33 33 31 29 27 27 27 28 30 30 30 32 32 29 28 28 28 28 28 29 29 29 31 33 34 33 32 31 32 32 31 31 33 34 33 33 35 35 34 31 30 29 30 31 30 32 37 35 31 32 32 31 32 32 31 33 33 33 32 32 31 29 27
32 33 33 33 35 38 37 37 38 39 40 40 38 38 38 37 36 36 36 37 36 35 34 34 33 34 34 32 31 31 30 29 29 30 30 30 30 29 29 30 30 29 29 29 28 29 30 32 33 32 31 31 32 32 34 34 34 35 35 34 35 36 34 32 32 32 32 33 34 33 34 38 36 32 32 33 33 34 34 33 33 33 33 32 30 29 28 27
32 33 34 34 35 37 37 37 37 39 41 41 41 41 41 39 39 39 38 37 37 36 35 35 34 34 33 32 33 34 33 32 31 31 31 31 29 27 29 31 31 31 31 29 28 28 29 31 32 32 32 33 33 32 33 35 34 35 36 35 36 36 35 34 34 33 34 37 38 37 38 41 38 34 35 35 34 35 35 34 34 33 32 32 30 28 27 27
33 33 34 34 35 36 36 36 36 38 40 41 41 42 43 41 39 39 39 39 38 37 37 36 35 35 35 34 34 35 35 36 34 32 32 32 30 28 29 31 32 32 31 29 29 29 29 30 32 34 36 37 37 35 32 31 32 34 36 36 36 37 37 36 36 36 38 39 41 41 41 44 44 40 37 37 36 36 36 34 34 33 31 31 31 29 28 28
35 34 34 34 34 36 36 37 37 38 38 40 40 40 43 44 41 39 40 39 39 38 38 37 37 37 37 37 37 37 36 37 37 36 35 34 31 29 29 30 31 32 31 30 31 29 29 32 34 36 38 39 40 37 32 31 33 35 36 35 35 36 37 38 39 41 41 39 41 43 42 45 48 45 40 38 37 37 37 35 34 34 32 31 32 32 29 29
37 35 35 35 34 35 37 37 39 39 38 39 39 39 42 44 43 41 40 39 39 39 39 38 40 41 41 39 38 38 37 37 38 38 37 35 33 31 31 30 31 31 30 30 31 30 31 34 35 36 38 39 40 37 33 34 35 35 36 36 35 35 37 39 42 44 43 41 43 45 44 45 48 45 41 39 39 39 39 38 37 36 35 33 33 33 32 32
38 36 35 35 34 34 35 35 37 40 39 38 38 39 40 42 44 43 40 39 40 40 40 41 41 42 42 41 40 40 39 38 38 38 37 36 35 34 34 33 32 32 31 31 31 31 33 35 36 36 37 39 40 38 35 35 37 36 36 36 36 36 38 40 43 44 44 44 44 45 46 48 46 43 40 37 37 38 39 39 38 37 37 36 34 35 36 37
40 38 36 35 35 34 34 34 36 38 40 39 38 39 40 41 43 42 40 40 41 41 41 43 43 42 42 42 41 41 41 39 40 39 38 38 37 36 36 35 33 32 32 32 31 31 32 34 34 33 35 38 40 39 38 37 38 38 37 36 36 37 39 41 42 41 41 43 43 44 46 47 43 39 38 37 35 36 37 37 38 38 38 38 38 39 39 40
41 40 37 36 36 36 35 34 35 37 39 40 40 39 40 41 42 40 39 40 41 40 41 43 43 41 41 42 43 43 42 41 41 41 39 39 39 37 37 36 35 34 34 33 32 31 33 33 32 32 34 37 39 40 39 37 36 38 38 38 38 39 39 39 39 39 39 41 41 41 43 44 39 34 36 38 36 36 37 37 38 39 39 40 41 41 42 42
43 41 40 38 37 37 36 35 36 37 39 39 40 40 39 39 40 39 39 39 40 41 41 41 40 39 41 43 43 42 40 39 41 41 41 41 40 39 38 37 36 36 36 35 34 33 34 35 34 34 35 38 40 39 36 34 33 36 40 41 42 42 40 39 39 40 42 40 39 40 41 42 39 35 37 38 36 36 38 38 38 40 40 41 42 42 43 43
Wind_Direction
197 197 197 197 197 197 198 198 198 199 199 200 200 200 200 201 201 201 202 202 202 202 203 203 204 204 204 206 206 206 206 203 201 202 203 204 206 207 208 208 209 210 209 209 207 207 208 208 207 207 206 206 210 209 208 210 210 214 216 217 218 218 221 217 211 212 232 230 204 204 213 220 217 211 224 237 237 246 252 246 249 254 255 258 260 259 251 227
199 200 199 199 199 199 199 200 200 201 201 202 202 203 203 203 203 204 204 205 205 205 206 206 207 206 207 209 209 209 208 205 203 204 206 208 210 211 211 211 212 212 210 210 209 208 208 207 206 207 207 208 211 211 211 214 216 218 218 221 222 219 222 223 215 212 237 242 208 209 221 229 230 210 217 237 233 235 250 248 247 255 254 250 253 253 246 233
201 201 201 202 201 201 201 202 202 203 203 204 204 204 205 205 206 206 207 207 207 207 208 209 209 209 210 211 211 211 209 208 207 209 210 211 213 212 212 213 214 212 210 210 209 208 207 205 204 206 207 208 210 211 213 217 219 220 221 224 223 220 224 227 221 216 239 249 218 213 223 235 239 219 220 240 241 238 247 247 243 250 251 245 246 247 241 237
203 203 203 203 203 203 203 204 204 205 205 205 206 206 207 207 208 208 209 209 210 210 210 211 211 211 212 213 212 211 210 211 211 212 212 214 215 213 213 213 213 212 209 208 207 206 204 203 204 205 207 208 211 213 215 219 220 219 223 228 224 222 225 224 224 224 240 251 234 220 224 235 237 229 229 236 244 245 245 246 246 250 252 247 247 247 241 239
205 205 205 205 205 205 206 206 206 207 207 207 208 208 208 209 209 210 210 211 211 211 212 212 212 212 213 214 213 211 212 213 213 213 214 215 215 213 212 211 210 209 206 206 205 204 203 203 204 206 209 210 212 215 217 220 220 218 225 230 224 225 228 225 228 232 239 248 238 226 230 235 233 236 237 236 244 249 248 249 251 256 263 262 254 250 246 243
206 206 206 206 207 207 208 208 208 209 209 209 210 210 210 210 211 211 212 212 212 213 213 213 213 213 214 214 212 211 214 215 214 214 215 215 214 212 210 209 208 206 207 206 205 205 204 205 207 208 210 213 217 218 217 219 222 222 224 225 224 230 233 228 232 235 237 240 235 235 241 238 234 243 245 240 243 248 257 260 260 264 272 271 255 246 248 247
207 208 208 208 208 209 209 210 210 210 211 211 211 211 212 212 212 212 213 213 214 214 214 214 213 214 215 214 212 212 215 217 215 214 215 214 212 209 207 206 206 206 208 206 206 207 205 206 207 207 210 213 218 219 218 220 224 225 220 220 225 231 235 233 235 233 235 240 242 246 246 239 238 247 254 246 243 245 253 259 263 268 270 267 256 249 251 252
208 209 209 210 210 210 210 211 211 212 212 212 213 213 213 213 213 214 214 214 214 214 214 214 214 215 215 213 213 213 214 217 216 214 214 212 209 207 206 206 206 207 207 207 208 207 206 208 206 208 213 215 216 216 218 218 222 224 217 219 224 230 233 233 232 230 236 244 245 246 245 246 247 254 259 251 247 248 252 256 260 264 264 262 259 256 257 257
208 209 210 211 211 211 212 212 213 213 214 214 214 214 214 214 214 214 214 215 215 215 215 214 215 215 214 213 214 214 215 217 216 213 213 211 208 207 206 208 209 208 207 208 210 208 209 210 208 213 214 213 215 216 220 221 222 222 218 218 222 228 231 231 232 234 241 245 245 246 248 252 252 257 258 251 252 257 258 257 258 260 260 260 260 259 258 259
209 209 210 211 212 212 213 213 213 214 214 215 215 215 215 215 215 215 215 215 215 215 215 215 216 216 214 214 215 215 216 217 216 214 213 211 209 208 208 210 211 210 209 210 211 210 213 211 210 213 210 211 216 218 224 224 219 217 215 217 223 230 233 237 237 240 247 247 251 252 254 255 251 254 253 248 254 261 258 255 256 259 260 260 261 262 262 262
209 210 210 211 212 212 213 214 214 214 215 215 215 215 215 215 216 216 215 215 215 215 215 216 216 216 214 214 216 216 216 217 215 215 214 211 210 210 210 212 213 212 211 211 212 212 213 210 208 213 215 215 215 218 222 221 218 217 216 218 229 235 234 242 243 247 252 249 253 257 258 255 246 247 248 246 253 258 258 256 257 259 261 263 264 265 266 265
210 210 211 211 212 212 213 214 214 215 215 215 216 216 216 216 216 216 215 215 215 215 215 216 217 216 215 216 217 217 217 217 215 214 213 212 211 210 212 213 214 214 213 212 212 212 210 208 210 216 218 214 214 219 218 219 222 221 223 226 231 236 237 244 247 250 252 249 251 255 259 252 240 243 245 246 254 258 261 261 260 261 262 265 266 267 268 267
211 211 212 212 212 213 213 214 215 215 215 216 217 216 216 216 216 216 216 215 215 215 216 217 217 217 217 218 218 218 218 218 216 214 214 213 212 211 212 214 214 214 213 211 211 211 210 213 216 214 214 216 219 221 216 220 226 223 230 235 233 237 240 245 249 250 248 248 248 250 258 253 241 244 246 250 256 260 263 262 261 262 264 266 268 270 270 269
211 212 213 213 213 213 214 215 215 216 216 217 217 217 217 217 216 216 216 216 216 216 216 217 217 218 219 219 219 219 219 219 217 215 215 215 213 212 213 214 212 212 212 210 210 212 212 214 215 211 216 221 218 217 218 225 230 228 233 237 237 240 241 244 249 249 246 245 245 246 255 256 251 250 249 255 259 261 264 264 263 264 265 267 269 270 271 270
211 212 213 214 214 214 215 216 216 217 217 217 218 217 217 217 217 217 216 216 217 217 217 217 218 219 219 220 220 220 219 219 218 217 218 217 215 214 214 213 210 211 210 210 211 212 213 214 215 215 219 220 216 219 224 228 231 232 234 234 238 241 242 244 247 248 248 248 244 244 252 257 259 258 256 260 260 260 264 266 267 267 267 269 270 271 271 271
212 212 213 214 215 215 216 216 217 218 218 218 218 218 218 218 218 217 217 217 217 217 217 218 219 219 220 221 220 220 220 220 219 220 219 218 217 215 213 211 211 212 212 213 214 215 217 217 219 221 221 222 223 224 225 228 230 233 236 235 236 240 243 244 243 248 252 249 245 246 253 258 259 260 257 258 262 266 269 270 270 270 270 270 271 271 272 273
212 213 214 214 215 216 216 217 217 218 218 218 218 218 218 218 218 218 217 217 218 218 218 219 219 220 223 222 221 221 221 221 220 220 219 219 218 214 213 213 214 215 215 216 219 221 224 223 222 224 225 228 228 226 226 230 231 232 236 238 239 241 243 245 243 245 251 250 248 248 252 257 260 263 262 260 263 270 272 272 273 273 273 272 273 273 273 275
214 213 214 214 215 216 216 217 217 218 218 219 219 218 218 218 218 218 218 218 218 218 219 220 219 221 224 222 222 222 221 221 220 220 220 219 217 216 216 216 216 217 217 220 223 226 227 226 227 227 227 229 228 227 228 232 232 231 233 236 240 240 242 247 247 245 249 250 250 250 252 257 261 264 266 265 265 267 269 271 273 274 274 274 274 274 275 276
217 215 214 214 215 215 216 217 217 218 219 219 218 217 217 218 218 219 219 219 219 220 221 220 219 222 224 222 222 223 221 221 221 221 220 219 218 217 218 218 218 219 220 223 225 228 229 227 227 227 227 227 226 228 230 233 233 229 232 236 237 240 242 245 248 249 252 253 253 254 256 260 263 264 266 267 265 266 269 271 273 274 274 275 275 275 274 275
218 218 216 215 215 216 216 217 217 218 218 218 216 216 218 218 220 221 221 221 221 222 223 221 221 223 224 223 222 221 221 221 222 222 220 220 219 217 219 221 220 222 225 226 226 228 231 229 228 229 229 227 227 229 229 231 232 229 232 237 238 243 245 244 247 251 254 257 257 257 261 263 265 266 266 268 267 267 268 270 272 272 273 274 273 274 274 275
219 219 218 217 216 216 217 217 217 217 218 217 217 218 220 220 222 223 222 223 223 223 224 223 223 224 224 223 222 221 222 223 223 223 221 221 220 220 223 223 223 225 228 228 228 229 231 232 231 230 231 229 227 226 226 229 233 233 235 239 241 243 246 247 250 254 254 258 260 262 266 266 265 266 267 268 268 268 268 268 270 271 272 273 273 274 275 277
219 219 219 219 218 217 217 218 218 218 218 218 218 221 222 222 223 223 223 224 225 225 225 225 225 225 225 225 224 224 224 224 224 224 223 222 223 225 225 225 226 227 228 228 228 230 232 233 231 227 227 228 228 229 229 232 234 236 237 240 242 244 247 249 253 256 256 259 263 268 270 268 268 268 267 266 266 268 269 268 270 272 273 273 274 275 276 278
218 219 219 219 219 219 219 219 220 220 219 219 219 221 222 222 223 224 225 226 226 226 226 226 226 226 225 227 226 225 225 226 225 224 224 223 224 227 226 225 228 228 227 228 228 230 232 235 233 227 226 226 230 232 231 233 236 237 238 240 243 245 248 250 254 257 258 262 269 273 273 271 269 268 267 265 264 268 270 270 272 272 271 272 274 276 277 278
218 219 219 219 219 220 220 220 221 222 221 220 221 222 221 221 223 224 226 228 228 227 226 227 227 227 226 227 225 225 226 228 227 225 224 223 224 227 228 227 229 229 229 230 231 233 234 235 233 230 231 230 230 231 231 234 238 239 240 241 244 245 247 252 258 261 261 264 270 275 275 270 267 267 269 268 267 269 270 271 273 271 270 272 274 276 277 277
220 219 219 218 218 220 221 223 223 223 223 222 222 222 221 221 224 226 227 230 231 228 228 227 227 227 226 226 225 225 227 229 229 227 224 224 224 226 229 230 231 231 230 230 233 236 236 233 230 230 234 234 232 233 234 235 239 241 241 241 245 247 249 253 260 265 266 265 269 275 274 269 268 269 268 269 270 270 268 269 272 273 272 273 274 276 277 279
222 220 219 218 217 218 221 224 224 223 223 223 223 222 222 222 224 226 227 232 234 229 227 227 227 227 225 225 224 224 229 230 229 229 225 226 227 228 229 231 234 234 230 230 235 238 236 234 233 231 231 233 236 237 236 236 239 242 243 243 245 248 251 254 258 262 265 266 268 271 271 272 274 271 268 268 270 270 269 269 271 273 273 273 275 278 280 283
222 221 220 220 218 217 221 224 223 223 223 223 222 221 223 223 224 228 229 235 236 229 226 228 227 227 226 225 223 223 230 229 227 228 227 227 228 230 231 230 233 234 232 232 237 238 235 234 235 233 231 233 236 238 236 234 238 243 246 247 245 246 250 252 256 259 264 269 269 266 269 272 272 270 270 270 269 270 271 271 272 272 273 274 277 280 283 286
224 222 221 221 220 220 222 223 222 223 224 224 221 220 222 223 225 228 229 233 234 228 227 228 228 228 227 225 224 226 230 229 227 228 228 228 229 231 233 231 231 232 232 234 237 239 237 234 233 232 233 235 237 241 237 233 240 247 249 249 247 249 251 253 256 259 264 270 267 262 265 271 270 268 272 272 269 270 272 271 272 272 273 276 279 283 286 288
225 223 222 221 221 222 223 223 222 223 225 224 222 220 220 222 225 227 229 232 231 229 229 227 226 228 226 225 227 229 230 231 232 230 228 229 230 232 234 232 231 231 233 238 239 241 241 238 236 234 235 237 239 244 242 238 243 246 245 248 249 252 254 255 257 259 263 266 262 257 260 271 274 270 267 269 269 270 271 271 273 276 278 280 283 286 288 290
226 225 223 221 222 223 224 224 224 224 224 224 224 221 220 223 224 224 228 231 231 231 231 228 228 228 224 224 229 232 232 233 232 228 229 230 231 233 233 232 233 232 235 239 240 240 241 240 239 238 239 239 237 242 245 244 243 241 242 247 248 251 254 255 258 260 261 262 259 256 256 265 274 271 264 267 271 270 270 272 276 279 281 282 285 287 290 292
227 226 224 222 222 223 224 225 225 224 224 224 224 222 222 226 226 224 228 232 233 232 230 229 230 227 223 225 230 231 232 234 231 228 230 232 231 232 231 231 233 234 237 239 239 240 241 240 240 240 240 239 237 240 244 245 243 243 245 246 247 251 253 255 256 256 256 258 260 264 263 260 261 265 269 275 276 274 275 278 279 279 279 281 285 286 290 293
228 227 224 223 223 223 224 226 224 223 224 224 224 224 225 226 226 226 228 230 233 233 230 230 232 229 227 229 231 230 231 233 232 231 232 232 232 231 232 233 231 233 237 237 238 241 241 241 241 242 241 239 238 239 241 243 243 245 244 242 246 251 253 254 253 252 254 256 261 266 265 258 258 264 272 275 276 275 275 276 276 275 278 283 285 284 287 290
229 228 225 223 223 224 225 226 223 221 223 222 223 226 226 225 226 228 227 227 232 234 231 231 232 230 228 229 231 230 232 234 232 233 234 233 233 233 235 237 235 236 239 237 237 239 241 243 241 239 241 240 238 237 238 241 242 242 241 241 243 247 251 252 252 256 259 258 260 262 259 259 264 268 269 269 272 276 275 273 271 271 279 285 285 282 284 286
230 229 227 224 224 225 225 224 222 221 221 219 220 223 225 227 229 228 227 228 232 235 234 231 229 229 229 231 232 231 233 234 232 233 234 232 233 234 235 237 236 238 240 238 238 238 240 244 239 237 240 238 238 241 242 242 242 243 245 245 244 244 248 252 253 255 259 259 257 256 255 258 263 269 269 267 273 278 278 276 274 275 279 283 283 281 283 284
230 229 227 226 226 225 224 223 222 222 221 218 220 222 222 225 228 227 228 229 230 233 235 232 227 226 229 233 235 233 234 235 233 234 234 232 234 234 234 235 234 235 237 238 241 239 242 246 243 243 244 238 239 244 244 242 243 245 247 245 246 247 248 253 256 256 259 261 255 251 255 259 263 269 270 269 273 276 277 277 278 277 277 277 280 281 282 283
231 230 229 228 227 225 224 222 221 222 221 219 223 224 223 226 227 227 229 229 229 229 229 231 230 228 229 231 232 233 234 235 233 233 235 236 238 237 236 236 234 233 235 237 241 241 243 247 246 247 247 242 243 246 243 242 242 242 242 242 246 250 249 250 255 257 256 259 257 254 258 263 267 270 268 267 271 274 276 278 277 275 276 278 279 280 283 283
232 231 231 229 228 226 224 222 221 221 221 222 225 226 227 230 229 228 229 230 230 229 227 231 232 231 230 231 231 230 232 233 232 233 234 235 238 237 236 239 236 234 236 239 242 242 243 246 247 246 245 244 246 245 243 245 244 241 241 242 246 250 250 248 252 255 253 256 259 255 257 262 265 267 268 268 270 272 275 276 276 276 279 279 278 281 284 284
232 232 232 231 229 226 224 223 222 220 221 225 228 227 228 229 228 228 228 227 230 231 230 232 233 233 233 232 232 230 230 231 230 232 233 234 237 235 233 238 238 235 236 240 242 242 242 245 246 245 244 244 244 242 240 243 244 244 245 245 245 247 247 245 248 253 253 256 259 257 257 260 259 262 268 270 269 272 274 274 276 278 277 276 279 283 284 282
232 232 233 231 229 226 224 224 223 222 223 227 229 228 228 227 226 226 225 225 229 229 230 233 234 235 234 233 234 232 231 232 230 231 234 234 237 236 233 236 238 236 235 236 240 242 241 243 245 245 245 243 240 239 238 239 241 243 245 245 246 248 248 246 247 252 254 255 259 260 260 260 259 262 268 269 269 271 271 273 276 275 274 277 283 286 284 280
231 231 232 231 228 225 223 224 224 225 227 227 228 229 229 228 227 226 224 225 229 229 230 232 232 233 234 233 235 234 234 235 233 233 235 234 237 238 236 236 238 238 235 234 237 240 240 242 244 244 244 241 239 240 240 239 238 240 241 241 243 245 248 250 250 250 253 255 258 260 261 261 262 264 266 268 270 270 270 272 273 272 275 281 286 285 282 279
230 231 232 230 226 223 221 224 226 228 230 229 228 229 230 229 228 226 225 226 230 231 231 231 230 231 233 233 235 235 235 236 235 235 237 235 236 238 237 237 236 236 236 235 236 238 238 240 242 242 241 241 242 246 247 244 242 242 242 242 242 243 244 248 251 249 251 255 256 258 262 264 264 265 266 267 270 271 270 270 272 275 280 284 285 284 281 278
230 231 231 229 225 222 222 227 229 229 231 230 229 229 230 230 229 227 226 227 230 232 232 232 231 230 231 232 233 233 232 234 235 235 237 236 235 236 237 237 234 231 234 237 239 239 240 241 241 241 243 244 246 248 248 248 247 247 247 246 246 245 242 244 250 251 251 253 256 259 263 264 264 265 267 269 271 271 270 271 274 278 281 284 284 283 280 275
230 231 231 229 225 222 223 229 229 230 232 232 231 231 230 231 231 229 227 228 230 231 231 232 232 231 232 232 231 231 230 232 233 234 236 238 236 235 235 234 231 231 235 240 241 240 239 240 241 243 245 246 247 247 247 248 247 246 246 246 246 246 245 246 251 253 251 250 253 256 260 263 264 265 267 270 271 270 271 273 276 278 281 283 282 281 279 272
230 231 231 229 226 223 226 230 230 230 232 232 232 233 232 232 232 230 229 229 230 230 231 232 232 232 233 232 232 232 231 232 234 233 235 238 237 234 232 231 231 233 237 240 240 238 237 239 240 242 244 244 244 244 245 244 244 245 246 245 244 245 246 248 250 252 253 251 250 254 258 262 265 266 266 268 269 272 274 275 276 278 281 282 280 277 274 269
230 231 232 230 228 226 229 232 232 232 232 232 233 233 233 234 232 230 231 231 231 231 231 232 232 233 234 233 234 233 232 233 236 235 235 237 238 236 234 231 231 234 236 238 238 237 238 240 238 238 241 242 242 243 245 244 244 246 248 246 245 244 243 246 248 249 251 252 251 252 257 262 265 265 265 266 268 272 275 275 276 277 278 279 278 273 270 267
229 231 231 231 230 230 231 233 233 233 232 232 233 233 233 234 234 232 232 232 232 231 232 233 232 232 233 233 234 234 233 234 237 237 236 236 237 238 236 233 232 233 233 233 234 236 240 242 240 239 241 244 246 248 249 247 245 245 247 246 245 244 243 245 247 247 250 254 254 253 257 263 265 263 263 266 268 270 273 274 276 276 275 276 275 272 269 266
230 231 230 230 231 231 231 231 232 233 233 231 233 234 233 233 235 234 233 233 233 232 234 235 232 231 232 232 234 236 235 236 237 237 238 237 238 240 239 237 236 235 233 232 233 236 241 242 240 241 243 246 249 250 248 247 246 246 247 246 245 245 244 244 246 248 251 254 256 256 257 261 264 264 264 265 268 270 272 273 273 273 272 274 274 272 268 264
230 232 231 230 232 232 232 232 231 232 233 232 233 235 234 233 234 234 234 235 234 233 234 235 232 232 232 232 234 237 236 236 237 237 238 239 239 240 240 241 241 239 237 237 237 238 240 241 241 242 244 246 249 250 247 247 249 249 248 247 245 245 244 244 247 250 251 252 256 261 260 259 263 267 266 266 267 268 269 270 271 271 272 272 270 268 265 263
231 232 231 231 233 234 234 232 230 230 231 232 234 235 234 233 234 234 234 235 235 234 235 236 234 233 234 233 234 236 236 236 237 238 239 240 239 239 241 242 243 242 241 241 243 243 243 243 243 243 245 248 249 250 248 247 250 251 250 249 247 245 245 246 249 252 252 253 257 262 263 262 264 267 268 268 268 267 267 267 268 269 269 269 267 265 265 265
231 231 231 231 232 233 234 232 229 229 231 231 233 235 234 234 234 234 234 235 236 235 235 237 237 236 236 236 236 237 236 236 239 239 239 241 241 241 242 243 243 244 243 242 244 245 244 245 245 245 247 249 249 249 248 248 249 251 250 251 250 248 248 249 251 253 254 255 258 261 263 264 264 266 268 269 267 266 265 265 265 266 267 268 268 266 266 267
231 231 231 232 232 231 232 232 230 230 230 230 232 234 234 235 235 235 236 237 237 237 237 238 239 239 239 239 239 239 239 239 241 242 241 241 242 241 242 243 242 242 243 242 243 243 242 245 246 244 246 248 248 249 249 249 250 251 250 249 249 249 251 252 253 254 254 255 257 259 260 263 266 266 267 267 265 264 264 265 265 267 267 268 268 268 268 268
230 231 231 232 233 231 231 232 231 230 231 232 233 234 234 235 234 234 237 238 237 238 239 239 241 241 240 241 241 242 243 243 245 245 244 244 244 243 243 244 244 244 242 243 244 243 242 244 245 243 245 248 249 250 249 248 249 249 248 248 248 250 252 254 255 254 254 254 257 257 259 264 268 268 267 267 265 265 265 265 266 267 267 267 268 268 268 268